Retour au catalogue

ONEWEB-0618

ActifCommunicationsPO
NORAD 55159·PAYLOAD·🇬🇧 United Kingdom

Lancé Jan 10, 2023 depuis Cape Canaveral Space Force Station

Loading…

Prochains Passages (prochaines 24 heures)

TLE

FraisSource: CelesTrak SupGP

Époque: Sep 14, 2026, 14:14 UTC

1 55159C 23004V   26257.59355738  .00006283  00000+0  34789-3 0  2570
2 55159  86.9085 141.3295 0010857 333.9649 101.9671 15.13885909    11

Suivez ONEWEB-0618 en temps réel avec AllMySat

Download on the App Store